Location: Anne Acres
(38.7004°N, 75.0827°W)
Time: 19:34:51
(UTC+00:00)

Vanguard 2 - Visible Passes

Search period start: 07 November 2024 00:00
Search period end: 17 November 2024 00:00
Orbit: 551 x 2910 km, 32.9° (Epoch: 06 November)

Date Brightness Start Highest point End Pass type
(mag) Time Alt. Az. Time Alt. Az. Time Alt. Az.
07 Nov 12.2 23:37:05 10° WSW 23:42:56 12° SW 23:48:39 10° SSW visible
10 Nov 12.2 22:03:24 10° WSW 22:13:14 19° SW 22:23:27 10° S visible
11 Nov 12.4 22:20:12 10° WSW 22:26:34 13° SW 22:33:06 10° SSW visible
